Location: Unspecified
(0.0000°N, 0.0000°E)
Time: 08:47:46
(UTC+00:00)

Explorer 11/Cluster Stage 4 - Pass Details

Date: 17 July 2020
Orbit: 467 x 1259 km, 28.8° (Epoch: 03 August)

Event Time Altitude Azimuth Distance (km) Brightness Sun altitude
Rises 04:50:46 0° 235° (SW) 2,690 - -17.6°
Reaches altitude 10° 04:53:09 10° 232° (SW) 1,719 - -17.0°
Exits shadow 04:55:27 33° 222° (SW) 834 6.2 -16.5°
Maximum altitude 04:56:58 66° 150° (SSE) 518 5.6 -16.1°
Drops below altitude 10° 05:00:32 10° 67° (ENE) 1,603 9.6 -15.3°
Sets 05:02:41 0° 64° (ENE) 2,487 11.1 -14.8°
